Weather Roundup
Issued by NWS

Home | Current Version | Previous Version | Text Only | Print | Product List | Glossary On
Versions: 1 2 3 4 5 6 7 8 9 10 11 12 13 14 15 16 17 18 19 20 21 22 23 24 25 26 27 28 29 30 31 32 33 34 35 36 37 38 39 40 41 42 43 44 45 46 47 48 49 50
000
NZUS93 KARX 240359
HRRWXR

CURRENT HOURLY OBSERVATIONS ACROSS
MUCH OF THE UPPER MISSISSIPPI VALLEY
NATIONAL WEATHER SERVICE LA CROSSE WI
1100 PM CDT MON APR 23 2018


...SOUTHEAST MINNESOTA...


CITY           SKY/WX    TMP DP  RH WIND       PRES   REMARKS
ROCHESTER      FAIR      57  33  40 N3        30.13S
ROCHESTER/MAYO FAIR      56  37  49 CALM      30.13S
WINONA         FAIR      50  37  62 CALM      30.11R
AUSTIN         FAIR      48  39  71 CALM      30.12F
ALBERT LEA     FAIR      48  41  76 CALM      30.14S
DODGE CENTER   FAIR      52  36  54 CALM      30.13S
PRESTON        FAIR      54  33  45 N5        30.13S
OWATONNA       FAIR      46  41  81 CALM      30.14S
FARIBAULT      NOT AVBL
$$

...ELSEWHERE IN MINNESOTA...


CITY           SKY/WX    TMP DP  RH WIND       PRES   REMARKS
MINNEAPOLIS    FAIR      56  40  55 N5        30.13S
INTNL FALLS    FAIR      39  30  70 CALM      30.15R
DULUTH         FAIR      50  35  56 W5        30.12S
RED WING       FAIR      46  30  53 CALM      30.12S
REDWOOD FALLS  CLEAR     53  43  68 SW3       30.14S
MANKATO        FAIR      56  41  57 CALM      30.14S
WORTHINGTON    CLEAR     49  40  71 SE3       30.16S
FAIRMONT       CLEAR     48  40  73 CALM      30.15S
$$

...SOUTHWEST WISCONSIN...


CITY           SKY/WX    TMP DP  RH WIND       PRES   REMARKS
LA CROSSE      FAIR      53  33  46 E3        30.11S
PRAIRIE DU CHI FAIR      50  32  50 CALM      30.11S
BOSCOBEL       FAIR      44  33  65 CALM      30.12F
LONE ROCK      FAIR      46  34  62 CALM      30.12S
PLATTEVILLE    FAIR      52  34  50 NE10      30.12S
FORT MC COY    FAIR      41  28  60 CALM      30.14S
MAUSTON-NEW LI FAIR      42  35  75 CALM      30.13F
VIROQUA        FAIR      51  31  46 E8        30.12F
WIS DELLS      FAIR      46  30  52 CALM      30.13S
$$

...ELSEWHERE IN WISCONSIN...


CITY           SKY/WX    TMP DP  RH WIND       PRES   REMARKS
MILWAUKEE      MOCLDY    51  25  36 N10       30.11F
MADISON        FAIR      48  33  56 N3        30.12S
GREEN BAY      FAIR      47  37  68 CALM      30.13F
EAU CLAIRE     NOT AVBL
BLACK RVR FLS  FAIR      36  27  68 CALM      30.13S
MEDFORD        FAIR      40  32  72 CALM      30.13S
WAUSAU         FAIR      46  28  49 E3        30.12S
WIS RAPIDS     FAIR      41  25  53 CALM      30.14F
MARSHFIELD     FAIR      46  30  53 CALM      30.12S
RICE LAKE      FAIR      41  37  86 CALM      30.15S
$$

...NORTHEAST IOWA...


CITY           SKY/WX    TMP DP  RH WIND       PRES   REMARKS
WATERLOO       FAIR      46  33  60 CALM      30.10S
DUBUQUE        FAIR      51  32  48 NE8       30.11S
DECORAH        FAIR      55  28  35 CALM      30.11S
MASON CITY     CLEAR     47  41  80 N7        30.14R
CHARLES CITY   FAIR      54  37  54 NE5       30.12S
OELWEIN        FAIR      52  32  46 E6        30.11F
$$

...ELSEWHERE IN IOWA...


CITY           SKY/WX    TMP DP  RH WIND       PRES   REMARKS
DES MOINES     CLEAR     60  30  32 NE6       30.09S
IOWA CITY      FAIR      57  27  31 NE8       30.09S
FORT DODGE     CLEAR     54  44  69 N6        30.13R
MARSHALLTOWN   CLEAR     50  34  54 NE7       30.09S
CEDAR RAPIDS   FAIR      56  28  34 NE10      30.08S
$$

...NORTHERN ILLINOIS...


CITY           SKY/WX    TMP DP  RH WIND       PRES   REMARKS
CHICAGO-OHARE  CLOUDY    49  31  49 N9        30.10F
CHICAGO-MIDWAY LGT RAIN  52  34  50 N3        30.10F
MOLINE         FAIR      60  35  39 E12       30.07R
ROCKFORD       MOCLDY    55  26  32 E3        30.11S
PEORIA         CLOUDY    56  53  90 E8        30.05F
$$

NOTE: "FAIR" INDICATES FEW OR NO CLOUDS BELOW 12,000 FEET WITH NO
SIGNIFICANT WEATHER AND/OR OBSTRUCTIONS TO VISIBILITY. WIND
SPEEDS ARE IN MILES-PER-HOUR.




USA.gov is the U.S. government's official web portal to all federal, state and local government web resources and services.